FW0324 Weather Reports


Display with metric or nautical units.
time (UTC)temp
F
wind
direction
speed
MPH
gust
MPH
rain 1hr
in
rain 24hr
in
rain mn
in
humidity
%
barometer
mb
20171211225511 62 235 1.0 9.0 0.00 0.01 0.01 63 1021.7
20171211224014 64 224 2.0 6.0 0.00 0.01 0.01 58 1021.8
20171211222511 65 243 3.0 10.0 0.00 0.01 0.01 53 1021.7
20171211221020 66 230 3.0 11.0 0.00 0.01 0.01 51 1021.8
20171211215509 67 233 2.0 8.0 0.00 0.01 0.01 50 1021.8
20171211214008 67 220 4.0 13.0 0.00 0.01 0.01 50 1021.8
20171211212509 68 245 4.0 10.0 0.00 0.01 0.01 47 1021.7
20171211211006 67 245 5.0 16.0 0.00 0.01 0.01 47 1021.8
20171211205506 67 206 6.0 13.0 0.00 0.01 0.01 45 1022.0
20171211204040 67 171 8.0 15.0 0.00 0.01 0.01 45 1022.1
20171211202501 67 244 5.0 14.0 0.00 0.01 0.01 46 1022.2
20171211201000 67 243 4.0 14.0 0.00 0.01 0.01 47 1022.6
20171211195456 67 216 3.0 11.0 0.00 0.01 0.01 46 1022.7
20171211194003 66 218 4.0 12.0 0.00 0.01 0.01 45 1023.0
20171211192502 66 238 7.0 13.0 0.00 0.01 0.01 46 1023.4
20171211190948 65 211 5.0 11.0 0.00 0.01 0.01 49 1023.4
20171211185503 65 232 3.0 12.0 0.00 0.01 0.01 49 1023.7
20171211183941 64 251 5.0 14.0 0.00 0.01 0.01 51 1023.8
20171211182445 64 266 2.0 13.0 0.00 0.01 0.01 52 1024.2
20171211180935 63 218 5.0 16.0 0.00 0.01 0.01 53 1024.5
20171211175439 62 231 4.0 13.0 0.00 0.01 0.01 54 1024.9
20171211173942 61 296 6.0 13.0 0.00 0.01 0.01 56 1025.3
20171211172430 61 175 2.0 9.0 0.00 0.01 0.01 57 1025.6
20171211170933 60 231 5.0 11.0 0.00 0.01 0.01 59 1025.9
20171211165422 60 233 6.0 9.0 0.00 0.01 0.01 57 1026.1
20171211163914 58 242 4.0 10.0 0.00 0.01 0.01 63 1026.2
20171211162417 57 254 3.0 9.0 0.00 0.01 0.01 65 1026.6
20171211160906 55 251 3.0 8.0 0.00 0.01 0.01 69 1026.9
20171211155422 54 220 1.0 8.0 0.01 0.01 0.01 74 1027.1
20171211153857 52 254 1.0 5.0 0.01 0.01 0.01 75 1027.3
20171211152352 50 237 2.0 6.0 0.01 0.01 0.01 79 1027.5
20171211150852 48 227 2.0 6.0 0.01 0.01 0.01 83 1027.4
20171211145357 45 244 1.0 3.0 0.00 0.00 0.00 91 1027.4
20171211143841 43 257 0.0 1.0 0.00 0.00 0.00 99 1027.3
20171211142340 41 258 0.0 0.0 0.00 0.00 0.00 99 1027.3
20171211140840 38 259 0.0 0.0 0.00 0.00 0.00 98 1027.2
20171211135335 37 259 0.0 0.0 0.00 0.00 0.00 98 1027.2
20171211133825 34 259 0.0 0.0 0.00 0.00 0.00 98 1027.1
20171211132412 32 259 0.0 0.0 0.00 0.00 0.00 98 1027.1
20171211130832 31 259 0.0 0.0 0.00 0.00 0.00 98 1027.0
20171211125324 30 259 0.0 0.0 0.00 0.00 0.00 98 1027.1
20171211123834 30 259 0.0 0.0 0.00 0.00 0.00 98 1027.1
20171211122327 30 259 0.0 0.0 0.00 0.00 0.00 98 1026.9
20171211120844 30 259 0.0 0.0 0.00 0.00 0.00 98 1026.8
20171211115324 30 259 0.0 0.0 0.00 0.00 0.00 98 1026.9
20171211113842 30 259 0.0 0.0 0.00 0.00 0.00 97 1026.9
20171211112327 30 259 0.0 0.0 0.00 0.00 0.00 97 1026.9
20171211110821 31 259 0.0 0.0 0.00 0.00 0.00 97 1026.9
20171211105315 31 259 0.0 0.0 0.00 0.00 0.00 97 1026.8
20171211103813 31 259 0.0 0.0 0.00 0.00 0.00 97 1027.1
20171211102314 31 259 0.0 0.0 0.00 0.00 0.00 97 1027.1
20171211100811 31 259 0.0 0.0 0.00 0.00 0.00 97 1027.1
20171211095310 31 259 0.0 0.0 0.00 0.00 0.00 97 1027.3
20171211093811 32 259 0.0 0.0 0.00 0.00 0.00 97 1027.4
20171211092308 32 259 0.0 0.0 0.00 0.00 0.00 97 1027.2
20171211090812 32 258 0.0 0.0 0.00 0.00 0.00 97 1027.2
20171211085309 32 259 0.0 0.0 0.00 0.00 0.00 97 1027.2
20171211083802 33 258 0.0 0.0 0.00 0.00 0.00 97 1027.3
20171211082305 33 259 0.0 0.0 0.00 0.00 0.00 97 1027.4
20171211080800 33 259 0.0 0.0 0.00 0.00 0.00 97 1027.5
20171211075300 33 259 0.0 0.0 0.00 0.00 0.00 97 1027.4
20171211073759 33 259 0.0 0.0 0.00 0.00 0.00 96 1027.4
20171211072317 33 259 0.0 0.0 0.00 0.00 0.00 97 1027.3
20171211070806 33 259 0.0 0.0 0.00 0.00 0.00 96 1027.4
20171211065253 34 259 0.0 0.0 0.00 0.00 0.00 96 1027.3
20171211063758 34 259 0.0 0.0 0.00 0.00 0.00 97 1027.6
20171211062253 34 259 0.0 0.0 0.00 0.00 0.00 96 1027.8
20171211060759 34 259 0.0 0.0 0.00 0.00 0.00 96 1027.9
20171211055311 34 259 0.0 0.0 0.00 0.00 0.00 96 1027.8
20171211053810 35 259 0.0 0.0 0.00 0.00 0.00 96 1027.9
20171211052310 35 259 0.0 0.0 0.00 0.00 0.00 96 1027.9
20171211050814 35 260 0.0 0.0 0.00 0.00 0.00 96 1028.3
20171211045311 35 260 0.0 0.0 0.00 0.00 0.00 96 1028.4
20171211043820 35 260 0.0 0.0 0.00 0.00 0.00 96 1028.3
20171211042307 35 260 0.0 0.0 0.00 0.00 0.00 95 1028.5
20171211040814 35 260 0.0 0.0 0.00 0.00 0.00 94 1028.8
20171211035331 36 260 0.0 0.0 0.00 0.00 0.00 94 1028.8
20171211033804 36 260 0.0 0.0 0.00 0.00 0.00 93 1029.0
20171211032304 37 260 0.0 0.0 0.00 0.00 0.00 94 1029.0
20171211030811 37 260 0.0 0.0 0.00 0.00 0.00 93 1028.8
20171211025305 38 260 0.0 0.0 0.00 0.00 0.00 92 1028.7
20171211023824 38 260 0.0 0.0 0.00 0.00 0.00 91 1028.7
20171211022300 39 260 0.0 0.0 0.00 0.00 0.00 90 1028.5
20171211020800 39 260 0.0 0.0 0.00 0.00 0.00 89 1028.4
20171211015308 39 260 0.0 0.0 0.00 0.00 0.00 90 1028.2
20171211013759 40 260 0.0 0.0 0.00 0.00 0.00 89 1028.1
20171211012305 40 260 0.0 0.0 0.00 0.00 0.00 88 1028.1
20171211010801 41 260 0.0 0.0 0.00 0.00 0.00 85 1028.0
20171211005312 42 260 0.0 0.0 0.00 0.00 0.00 84 1027.8
20171211003808 43 260 0.0 0.0 0.00 0.00 0.00 81 1027.7
20171211002255 43 259 0.0 0.0 0.00 0.00 0.00 80 1027.7
20171211000753 44 260 0.0 0.0 0.00 0.00 0.00 79 1027.6
20171210235254 46 260 0.0 0.0 0.00 0.00 0.00 73 1027.6
20171210233753 48 260 0.0 0.0 0.00 0.00 0.00 70 1027.6
20171210232250 50 260 0.0 0.0 0.00 0.00 0.00 65 1027.5
20171210230804 53 260 0.0 0.0 0.00 0.00 0.00 57 1027.4